Location: LC-39B
(28.6273°N, 80.6211°W)
Time: 14:18:51
(UTC+00:00)

ISS - Visible Passes

Search period start: 29 August 2016 00:00
Search period end: 08 September 2016 00:00
Orbit: 402 x 406 km, 51.6° (Epoch: 29 August)

Date Brightness Start Highest point End Pass type
(mag) Time Alt. Az. Time Alt. Az. Time Alt. Az.
01 Sep -2.6 10:31:14 10° SSW 10:34:26 53° SE 10:37:38 10° NE visible
02 Sep -1.1 09:40:12 14° S 09:42:07 22° SE 09:44:43 10° ENE visible
03 Sep -2.8 10:23:11 12° WSW 10:25:57 43° NW 10:29:06 10° NNE visible
04 Sep -3.4 09:33:21 72° SSE 09:33:30 74° SE 09:36:46 10° NE visible
05 Sep -0.1 08:43:25 14° ENE 08:43:25 14° ENE 08:44:00 10° ENE visible
05 Sep -1.4 10:16:05 13° WNW 10:17:35 17° NW 10:19:49 10° N visible
06 Sep -1.7 09:26:02 26° N 09:26:02 26° N 09:28:00 10° NNE visible
